Change the Weather History Date:

Sunday, January 20, 2013

  Actual Average (KMGW) Record (KMGW)
Temperature  
Mean Temperature 30 °F 31 °F  
Max Temperature 39 °F 39 °F 69 °F (1951)
Min Temperature 21 °F 24 °F -17 °F (1985)
Degree Days  
Heating Degree Days 35 34  
Month to date heating degree days 677  
Since 1 July heating degree days 2661  
Cooling Degree Days 0 0  
Month to date cooling degree days 0  
Year to date cooling degree days 0  
Moisture  
Dew Point 16 °F    
Average Humidity 54    
Maximum Humidity 75    
Minimum Humidity 25    
Precipitation  
Precipitation 0.00 in 0.10 in 0.92 in (1986)
Month to date precipitation 1.81  
Year to date precipitation 1.81  
Sea Level Pressure  
Sea Level Pressure 29.88 in    
Wind  
Wind Speed 17 mph (West)    
Max Wind Speed 26 mph    
Max Gust Speed 47 mph    
Visibility 10 miles    
Events      
T = Trace of Precipitation, MM = Missing Value Source: NWS Daily Summary

Daily Weather History Graph

Daily Weather History Graph

Search for Another Location

Airport or City:

Trip Planner

Search our weather history database for the weather conditions in past years. The results will help you decide how hot, cold, wet, or windy it might be!

Date:

Astronomy

Jan. 20, 2013 Rise Set
Actual Time 7:33 AM EST 5:23 PM EST
Civil Twilight 7:04 AM EST 5:52 PM EST
Nautical Twilight 6:31 AM EST 6:25 PM EST
Astronomical Twilight 5:59 AM EST 6:57 PM EST
Moon 12:23 PM EST (1/20) 2:04 AM EST (1/20)
Length of Visible Light 10h 48m
Length of Day
9h 49m
Waxing Gibbous, 66% of the Moon is Illuminated
Jan 20
Waxing Gibbous
Jan 26
Full
Feb 3
Last Quarter
Feb 10
New
Feb 17
First Quarter

Hourly Weather History & Observations

Time (EST) Temp. Windchill Dew Point Humidity Pressure Visibility Wind Dir Wind Speed Gust Speed Precip Events Conditions
12:05 AM 39.2 °F 30.2 °F 12.2 °F 33% 29.85 in 10.0 mi SW 17.3 mph 32.2 mph N/A   Clear
12:25 AM 39.2 °F 29.8 °F 14.0 °F 36% 29.85 in 10.0 mi SW 18.4 mph 38.0 mph N/A   Clear
12:45 AM 39.2 °F 29.8 °F 14.0 °F 36% 29.84 in 10.0 mi SW 18.4 mph 28.8 mph N/A   Clear
1:10 AM 39.2 °F 30.2 °F 14.0 °F 36% 29.83 in 10.0 mi WSW 17.3 mph 38.0 mph N/A   Clear
1:30 AM 37.4 °F 25.6 °F 17.6 °F 45% 29.83 in 10.0 mi WSW 26.5 mph 43.7 mph N/A   Clear
1:50 AM 37.4 °F 27.2 °F 17.6 °F 45% 29.82 in 10.0 mi WSW 19.6 mph 38.0 mph N/A   Clear
2:10 AM 37.4 °F 27.8 °F 19.4 °F 48% 29.81 in 10.0 mi WSW 17.3 mph 34.5 mph N/A   Clear
2:35 AM 37.4 °F 26.9 °F 21.2 °F 52% 29.81 in 10.0 mi WSW 20.7 mph 34.5 mph N/A   Clear
2:55 AM 37.4 °F 27.8 °F 21.2 °F 52% 29.81 in 10.0 mi WSW 17.3 mph 33.4 mph N/A   Clear
3:15 AM 37.4 °F 28.2 °F 21.2 °F 52% 29.80 in 10.0 mi WSW 16.1 mph 43.7 mph N/A   Clear
3:35 AM 37.4 °F 26.9 °F 23.0 °F 56% 29.80 in 10.0 mi WSW 20.7 mph 38.0 mph N/A   Scattered Clouds
4:00 AM 35.6 °F 23.4 °F 23.0 °F 60% 29.79 in 10.0 mi WSW 25.3 mph 36.8 mph N/A   Clear
4:20 AM 35.6 °F 25.5 °F 24.8 °F 65% 29.78 in 10.0 mi WSW 17.3 mph 32.2 mph N/A   Clear
4:40 AM 35.6 °F 23.2 °F 24.8 °F 65% 29.78 in 10.0 mi WSW 26.5 mph 40.3 mph N/A   Clear
5:00 AM 35.6 °F 24.2 °F 26.6 °F 70% 29.77 in 10.0 mi WSW 21.9 mph 35.7 mph N/A   Clear
5:25 AM 35.6 °F 24.0 °F 26.6 °F 70% 29.77 in 10.0 mi WSW 23.0 mph 34.5 mph N/A   Clear
5:45 AM 35.6 °F 24.8 °F 28.4 °F 75% 29.77 in 10.0 mi WSW 19.6 mph 39.1 mph N/A   Clear
6:05 AM 35.6 °F 24.2 °F 28.4 °F 75% 29.77 in 10.0 mi WSW 21.9 mph 42.6 mph N/A   Clear
6:30 AM 35.6 °F 23.7 °F 28.4 °F 75% 29.78 in 10.0 mi WSW 24.2 mph 35.7 mph N/A   Clear
6:50 AM 35.6 °F 23.4 °F 28.4 °F 75% 29.79 in 10.0 mi WSW 25.3 mph 38.0 mph N/A   Scattered Clouds
7:10 AM 35.6 °F 23.2 °F 28.4 °F 75% 29.79 in 10.0 mi WSW 26.5 mph 47.2 mph N/A   Mostly Cloudy
7:30 AM 35.6 °F 24.5 °F 28.4 °F 75% 29.80 in 10.0 mi West 20.7 mph 39.1 mph N/A   Overcast
7:55 AM 35.6 °F 24.8 °F 28.4 °F 75% 29.80 in 10.0 mi WSW 19.6 mph 33.4 mph N/A   Overcast
8:15 AM 35.6 °F 25.2 °F 28.4 °F 75% 29.81 in 10.0 mi WSW 18.4 mph 35.7 mph N/A   Mostly Cloudy
8:35 AM 35.6 °F 24.5 °F 28.4 °F 75% 29.82 in 10.0 mi West 20.7 mph 35.7 mph N/A   Mostly Cloudy
8:55 AM 35.6 °F 24.5 °F 28.4 °F 75% 29.83 in 10.0 mi West 20.7 mph 34.5 mph N/A   Mostly Cloudy
9:20 AM 35.6 °F 25.2 °F 28.4 °F 75% 29.84 in 10.0 mi West 18.4 mph 32.2 mph N/A   Mostly Cloudy
9:40 AM 35.6 °F 25.5 °F 26.6 °F 70% 29.84 in 10.0 mi West 17.3 mph 29.9 mph N/A   Mostly Cloudy
10:00 AM 35.6 °F 26.2 °F 28.4 °F 75% 29.85 in 10.0 mi West 15.0 mph 32.2 mph N/A   Mostly Cloudy
10:20 AM 35.6 °F 23.7 °F 26.6 °F 70% 29.85 in 10.0 mi West 24.2 mph 33.4 mph N/A   Mostly Cloudy
10:45 AM 35.6 °F 25.5 °F 21.2 °F 56% 29.85 in 10.0 mi West 17.3 mph 38.0 mph N/A   Mostly Cloudy
11:05 AM 35.6 °F 25.5 °F 24.8 °F 65% 29.86 in 10.0 mi West 17.3 mph 27.6 mph N/A   Mostly Cloudy
11:25 AM 35.6 °F 26.2 °F 23.0 °F 60% 29.87 in 10.0 mi West 15.0 mph 31.1 mph N/A   Scattered Clouds
12:10 PM 35.6 °F 25.5 °F 17.6 °F 48% 29.86 in 10.0 mi West 17.3 mph 31.1 mph N/A   Clear
12:30 PM 33.8 °F 24.3 °F 12.2 °F 41% 29.87 in 10.0 mi WNW 13.8 mph 24.2 mph N/A   Clear
12:50 PM 33.8 °F 25.3 °F 8.6 °F 35% 29.87 in 10.0 mi West 11.5 mph 27.6 mph N/A   Clear
1:10 PM 33.8 °F 24.3 °F 8.6 °F 35% 29.88 in 10.0 mi West 13.8 mph 26.5 mph N/A   Clear
1:35 PM 33.8 °F 23.5 °F 5.0 °F 30% 29.88 in 10.0 mi West 16.1 mph 24.2 mph N/A   Clear
1:55 PM 32.0 °F 21.6 °F -0.4 °F 25% 29.89 in 10.0 mi West 15.0 mph 24.2 mph N/A   Clear
2:15 PM 32.0 °F 23.6 °F 1.4 °F 27% 29.90 in 10.0 mi West 10.4 mph 29.9 mph N/A   Clear
2:35 PM 32.0 °F 21.6 °F 3.2 °F 30% 29.90 in 10.0 mi West 15.0 mph 29.9 mph N/A   Clear
3:00 PM 32.0 °F 23.0 °F 5.0 °F 32% 29.92 in 10.0 mi West 11.5 mph 20.7 mph N/A   Clear
3:20 PM 32.0 °F 21.6 °F 6.8 °F 35% 29.92 in 10.0 mi West 15.0 mph 25.3 mph N/A   Clear
3:40 PM 32.0 °F 21.6 °F 6.8 °F 35% 29.93 in 10.0 mi West 15.0 mph 24.2 mph N/A   Clear
4:00 PM 32.0 °F 23.0 °F 3.2 °F 30% 29.93 in 10.0 mi West 11.5 mph 26.5 mph N/A   Clear
4:25 PM 30.2 °F 20.8 °F 6.8 °F 37% 29.94 in 10.0 mi West 11.5 mph 18.4 mph N/A   Clear
4:45 PM 30.2 °F 21.3 °F 6.8 °F 37% 29.94 in 10.0 mi West 10.4 mph 25.3 mph N/A   Clear
5:05 PM 28.4 °F 19.1 °F 6.8 °F 40% 29.95 in 10.0 mi West 10.4 mph 21.9 mph N/A   Clear
5:25 PM 28.4 °F 18.5 °F 5.0 °F 37% 29.95 in 10.0 mi West 11.5 mph 21.9 mph N/A   Clear
5:30 PM 28.4 °F 18.5 °F 5.0 °F 37% 29.96 in 10.0 mi West 11.5 mph 19.6 mph N/A   Clear
5:50 PM 28.4 °F 20.4 °F 5.0 °F 37% 29.95 in 10.0 mi West 8.1 mph 18.4 mph N/A   Clear
6:10 PM 26.6 °F 16.8 °F 6.8 °F 43% 29.96 in 10.0 mi WNW 10.4 mph 16.1 mph N/A   Clear
6:30 PM 26.6 °F 16.8 °F 6.8 °F 43% 29.97 in 10.0 mi WNW 10.4 mph 23.0 mph N/A   Clear
6:55 PM 26.6 °F 16.2 °F 6.8 °F 43% 29.97 in 10.0 mi West 11.5 mph 20.7 mph N/A   Clear
7:15 PM 26.6 °F 16.2 °F 8.6 °F 47% 29.97 in 10.0 mi WNW 11.5 mph 17.3 mph N/A   Clear
7:35 PM 26.6 °F 16.2 °F 8.6 °F 47% 29.97 in 10.0 mi West 11.5 mph 21.9 mph N/A   Clear
7:55 PM 24.8 °F 17.9 °F 8.6 °F 50% 29.98 in 10.0 mi WNW 5.8 mph - N/A   Clear
8:20 PM 23.0 °F 13.9 °F 10.4 °F 59% 29.97 in 10.0 mi WNW 8.1 mph - N/A   Clear
8:40 PM 23.0 °F 13.1 °F 12.2 °F 63% 29.97 in 10.0 mi WNW 9.2 mph - N/A   Mostly Cloudy
9:00 PM 23.0 °F 13.9 °F 12.2 °F 63% 29.98 in 10.0 mi NW 8.1 mph 17.3 mph N/A   Scattered Clouds
9:20 PM 23.0 °F 13.9 °F 12.2 °F 63% 29.98 in 10.0 mi WNW 8.1 mph - N/A   Clear
9:45 PM 21.2 °F 10.9 °F 12.2 °F 68% 29.97 in 10.0 mi WNW 9.2 mph 17.3 mph N/A   Clear
10:05 PM 21.2 °F 14.9 °F 12.2 °F 68% 29.97 in 10.0 mi NW 4.6 mph - N/A   Scattered Clouds
10:25 PM 21.2 °F 13.6 °F 12.2 °F 68% 29.97 in 10.0 mi NW 5.8 mph - N/A   Mostly Cloudy
10:45 PM 21.2 °F 12.6 °F 12.2 °F 68% 29.98 in 10.0 mi WNW 6.9 mph - N/A   Overcast
11:10 PM 21.2 °F 11.7 °F 12.2 °F 68% 29.97 in 10.0 mi West 8.1 mph - N/A   Overcast
11:50 PM 21.2 °F 11.7 °F 12.2 °F 68% 29.96 in 10.0 mi WNW 8.1 mph - N/A   Overcast